TimeEDT,TemperatureF,Dew PointF,Humidity,Sea Level PressureIn,VisibilityMPH,Wind Direction,Wind SpeedMPH,Gust SpeedMPH,PrecipitationIn,Events,Conditions,WindDirDegrees,DateUTC
12:14 AM,40.6,35.6,82,30.22,10.0,Calm,Calm,-,N/A,,Mostly Cloudy,0,2013-05-03 04:14:00
12:34 AM,40.6,35.6,82,30.22,10.0,NW,3.5,-,N/A,,Overcast,320,2013-05-03 04:34:00
12:54 AM,40.6,35.6,82,30.22,10.0,Calm,Calm,-,N/A,,Overcast,0,2013-05-03 04:54:00
1:14 AM,40.6,35.6,82,30.21,10.0,NNW,4.6,-,N/A,,Overcast,340,2013-05-03 05:14:00
1:34 AM,40.5,35.6,83,30.20,10.0,North,4.6,-,N/A,,Overcast,360,2013-05-03 05:34:00
1:54 AM,40.5,35.2,82,30.20,10.0,Calm,Calm,-,N/A,,Overcast,0,2013-05-03 05:54:00
2:14 AM,40.5,35.1,81,30.19,10.0,North,3.5,-,N/A,,Overcast,350,2013-05-03 06:14:00
2:34 AM,40.3,35.1,82,30.18,10.0,Calm,Calm,-,N/A,,Overcast,0,2013-05-03 06:34:00
2:54 AM,39.9,34.9,82,30.18,10.0,Calm,Calm,-,N/A,,Scattered Clouds,0,2013-05-03 06:54:00
3:14 AM,39.6,34.9,83,30.18,10.0,Calm,Calm,-,N/A,,Scattered Clouds,0,2013-05-03 07:14:00
3:34 AM,39.7,34.9,83,30.18,10.0,Calm,Calm,-,N/A,,Mostly Cloudy,0,2013-05-03 07:34:00
4:14 AM,39.9,35.4,84,30.17,10.0,Calm,Calm,-,N/A,,Mostly Cloudy,0,2013-05-03 08:14:00
4:34 AM,39.6,35.2,85,30.17,10.0,Calm,Calm,-,N/A,,Overcast,0,2013-05-03 08:34:00
4:54 AM,39.4,35.6,86,30.17,10.0,Calm,Calm,-,N/A,,Overcast,0,2013-05-03 08:54:00
5:14 AM,39.4,35.6,86,30.17,10.0,North,3.5,-,N/A,,Mostly Cloudy,350,2013-05-03 09:14:00
5:34 AM,39.2,35.6,87,30.17,10.0,Calm,Calm,-,N/A,,Mostly Cloudy,0,2013-05-03 09:34:00
5:54 AM,39.2,35.1,85,30.17,10.0,Calm,Calm,-,N/A,,Mostly Cloudy,0,2013-05-03 09:54:00
6:14 AM,38.8,35.6,88,30.17,10.0,Calm,Calm,-,N/A,,Clear,0,2013-05-03 10:14:00
6:35 AM,38.3,35.1,88,30.17,10.0,NNW,4.6,-,N/A,,Clear,330,2013-05-03 10:35:00
6:54 AM,38.7,35.4,88,30.17,10.0,Calm,Calm,-,N/A,,Clear,0,2013-05-03 10:54:00
7:14 AM,39.4,35.8,87,30.17,10.0,Calm,Calm,-,N/A,,Scattered Clouds,0,2013-05-03 11:14:00
7:34 AM,40.5,36.1,85,30.17,10.0,North,3.5,-,N/A,,Overcast,360,2013-05-03 11:34:00
7:54 AM,40.5,36.0,84,30.17,10.0,Calm,Calm,-,N/A,,Overcast,0,2013-05-03 11:54:00
8:14 AM,41.0,36.1,83,30.17,10.0,Calm,Calm,-,N/A,,Overcast,0,2013-05-03 12:14:00
8:34 AM,42.3,37.0,82,30.16,10.0,NW,4.6,-,N/A,,Overcast,320,2013-05-03 12:34:00
8:54 AM,44.8,37.4,75,30.16,10.0,NNE,4.6,-,N/A,,Mostly Cloudy,20,2013-05-03 12:54:00
9:15 AM,47.1,38.5,72,30.15,10.0,ENE,3.5,-,N/A,,Clear,70,2013-05-03 13:15:00
9:34 AM,47.5,38.5,71,30.15,10.0,Calm,Calm,-,N/A,,Clear,0,2013-05-03 13:34:00
9:54 AM,49.1,39.4,69,30.14,10.0,NNE,3.5,-,N/A,,Clear,20,2013-05-03 13:54:00
10:15 AM,52.5,40.3,63,30.14,10.0,West,4.6,-,N/A,,Scattered Clouds,280,2013-05-03 14:15:00
10:34 AM,53.1,40.3,62,30.13,10.0,North,-9999.0,-,N/A,,Overcast,0,2013-05-03 14:34:00
10:54 AM,56.3,41.4,57,30.12,10.0,Calm,Calm,-,N/A,,Mostly Cloudy,0,2013-05-03 14:54:00
11:15 AM,57.2,41.4,55,30.13,10.0,South,6.9,-,N/A,,Scattered Clouds,190,2013-05-03 15:15:00
11:34 AM,56.3,41.4,57,30.12,10.0,South,6.9,-,N/A,,Scattered Clouds,180,2013-05-03 15:34:00
11:54 AM,57.6,41.9,56,30.11,10.0,South,4.6,-,N/A,,Mostly Cloudy,190,2013-05-03 15:54:00
12:14 PM,59.9,42.8,53,30.10,10.0,South,5.8,-,N/A,,Scattered Clouds,190,2013-05-03 16:14:00
12:34 PM,60.8,43.5,53,30.10,10.0,South,5.8,-,N/A,,Clear,190,2013-05-03 16:34:00
12:55 PM,61.2,43.3,52,30.09,10.0,South,8.1,-,N/A,,Clear,180,2013-05-03 16:55:00
1:14 PM,60.8,43.3,53,30.08,10.0,South,6.9,-,N/A,,Clear,180,2013-05-03 17:14:00
1:34 PM,61.9,43.7,51,30.08,10.0,South,3.5,-,N/A,,Clear,180,2013-05-03 17:34:00
1:55 PM,61.7,43.7,52,30.07,10.0,South,5.8,-,N/A,,Mostly Cloudy,180,2013-05-03 17:55:00
2:14 PM,62.6,44.4,51,30.07,10.0,South,4.6,-,N/A,,Mostly Cloudy,180,2013-05-03 18:14:00
2:34 PM,62.8,44.6,51,30.07,10.0,SSW,4.6,-,N/A,,Overcast,210,2013-05-03 18:34:00
2:54 PM,61.9,44.1,52,30.06,10.0,SSW,6.9,-,N/A,,Overcast,210,2013-05-03 18:54:00
3:14 PM,63.3,44.6,50,30.06,10.0,South,5.8,-,N/A,,Mostly Cloudy,190,2013-05-03 19:14:00
3:35 PM,63.0,45.1,52,30.06,10.0,SSW,3.5,-,N/A,,Mostly Cloudy,200,2013-05-03 19:35:00
3:54 PM,65.3,45.7,49,30.05,10.0,South,5.8,-,N/A,,Mostly Cloudy,180,2013-05-03 19:54:00
4:14 PM,63.1,45.1,52,30.05,10.0,SSW,5.8,-,N/A,,Mostly Cloudy,200,2013-05-03 20:14:00
4:35 PM,62.6,46.0,55,30.04,10.0,South,3.5,-,N/A,,Overcast,190,2013-05-03 20:35:00
4:54 PM,61.9,44.8,53,30.04,10.0,South,8.1,17.3,N/A,,Overcast,190,2013-05-03 20:54:00
5:14 PM,60.8,45.3,57,30.04,10.0,South,5.8,-,N/A,,Overcast,190,2013-05-03 21:14:00
5:34 PM,61.0,46.4,59,30.04,10.0,South,3.5,-,N/A,,Overcast,190,2013-05-03 21:34:00
5:54 PM,61.0,45.5,57,30.03,10.0,Calm,Calm,-,N/A,,Mostly Cloudy,0,2013-05-03 21:54:00
6:15 PM,62.4,45.9,55,30.03,10.0,Calm,Calm,-,N/A,,Scattered Clouds,0,2013-05-03 22:15:00
6:34 PM,63.0,46.6,55,30.03,10.0,Calm,Calm,-,N/A,,Scattered Clouds,0,2013-05-03 22:34:00
6:55 PM,63.7,47.3,55,30.03,10.0,Calm,Calm,-,N/A,,Scattered Clouds,0,2013-05-03 22:55:00
7:15 PM,64.4,47.7,55,30.03,10.0,Calm,Calm,-,N/A,,Scattered Clouds,0,2013-05-03 23:15:00
7:34 PM,64.6,48.2,55,30.03,10.0,Calm,Calm,-,N/A,,Mostly Cloudy,0,2013-05-03 23:34:00
7:55 PM,63.7,49.1,59,30.04,10.0,Calm,Calm,-,N/A,,Scattered Clouds,0,2013-05-03 23:55:00
8:14 PM,62.1,50.4,65,30.04,10.0,Calm,Calm,-,N/A,,Clear,0,2013-05-04 00:14:00
8:34 PM,60.6,51.1,71,30.04,10.0,Calm,Calm,-,N/A,,Clear,0,2013-05-04 00:34:00
8:55 PM,59.2,50.7,74,30.05,10.0,Calm,Calm,-,N/A,,Clear,0,2013-05-04 00:55:00
9:14 PM,57.7,51.3,79,30.06,10.0,Calm,Calm,-,N/A,,Scattered Clouds,0,2013-05-04 01:14:00
9:34 PM,57.0,51.8,83,30.07,10.0,Calm,Calm,-,N/A,,Mostly Cloudy,0,2013-05-04 01:34:00
9:55 PM,56.3,50.2,80,30.07,10.0,Calm,Calm,-,N/A,,Scattered Clouds,0,2013-05-04 01:55:00
10:14 PM,54.1,46.8,76,30.08,10.0,South,10.4,16.1,N/A,,Clear,180,2013-05-04 02:14:00
10:35 PM,51.1,44.8,79,30.08,10.0,South,9.2,-,N/A,,Clear,190,2013-05-04 02:35:00
10:55 PM,49.1,42.8,79,30.09,10.0,South,5.8,-,N/A,,Clear,190,2013-05-04 02:55:00
11:14 PM,48.0,41.9,79,30.09,10.0,SSW,4.6,-,N/A,,Clear,200,2013-05-04 03:14:00
11:35 PM,47.1,41.0,79,30.09,10.0,South,3.5,-,N/A,,Clear,190,2013-05-04 03:35:00
11:54 PM,46.4,40.6,80,30.10,10.0,South,3.5,-,N/A,,Clear,180,2013-05-04 03:54:00